| time (UTC) | temp F | wind direction | speed knots | gust knots | rain 1hr in | rain 24hr in | rain mn in | humidity % | barometer mb |
| 20260903205825 | 60 | 208 | 5.2 | 9.6 | 0.01 | 0.72 | 0.71 | 87 | 1004.4 |
| 20260903205325 | 60 | 175 | 3.5 | 7.0 | 0.01 | 0.72 | 0.71 | 88 | 1004.4 |
| 20260903204825 | 60 | 163 | 3.5 | 14.8 | 0.00 | 0.72 | 0.71 | 87 | 1004.4 |
| 20260903204327 | 60 | 197 | 4.3 | 14.8 | 0.00 | 0.72 | 0.70 | 87 | 1004.4 |
| 20260903203825 | 61 | 179 | 5.2 | 14.8 | 0.00 | 0.72 | 0.70 | 87 | 1004.4 |
| 20260903203325 | 61 | 197 | 6.1 | 13.9 | 0.00 | 0.72 | 0.70 | 87 | 1004.3 |
| 20260903202825 | 61 | 165 | 5.2 | 7.8 | 0.00 | 0.72 | 0.70 | 89 | 1004.2 |
| 20260903202325 | 62 | 123 | 1.7 | 13.9 | 0.00 | 0.72 | 0.70 | 89 | 1004.2 |
| 20260903201825 | 62 | 163 | 2.6 | 13.9 | 0.01 | 0.72 | 0.70 | 90 | 1004.3 |
| 20260903201326 | 62 | 173 | 2.6 | 13.9 | 0.01 | 0.72 | 0.70 | 90 | 1004.3 |
| 20260903200825 | 61 | 175 | 2.6 | 8.7 | 0.02 | 0.72 | 0.70 | 90 | 1004.4 |
| 20260903200325 | 61 | 72 | 1.7 | 7.8 | 0.02 | 0.72 | 0.70 | 91 | 1004.2 |
| 20260903195825 | 60 | 210 | 3.5 | 5.2 | 0.02 | 0.74 | 0.70 | 91 | 1004.3 |
| 20260903195325 | 60 | 120 | 1.7 | 5.2 | 0.02 | 0.74 | 0.70 | 91 | 1004.4 |
| 20260903194826 | 59 | 182 | 2.6 | 3.5 | 0.02 | 0.74 | 0.70 | 91 | 1004.4 |
| 20260903194326 | 59 | 133 | 0.9 | 7.0 | 0.02 | 0.74 | 0.70 | 91 | 1004.5 |
| 20260903193825 | 59 | 168 | 0.9 | 7.0 | 0.02 | 0.74 | 0.70 | 91 | 1004.6 |
| 20260903193325 | 59 | 137 | 2.6 | 7.0 | 0.02 | 0.74 | 0.70 | 91 | 1004.7 |
| 20260903192825 | 58 | 145 | 3.5 | 7.0 | 0.04 | 0.74 | 0.70 | 91 | 1004.8 |
| 20260903192325 | 58 | 127 | 1.7 | 7.0 | 0.04 | 0.74 | 0.70 | 90 | 1004.8 |
| 20260903191825 | 58 | 184 | 1.7 | 7.0 | 0.04 | 0.74 | 0.69 | 90 | 1004.8 |
| 20260903191326 | 58 | 158 | 1.7 | 6.1 | 0.04 | 0.74 | 0.69 | 90 | 1004.8 |
| 20260903190825 | 58 | 162 | 2.6 | 7.8 | 0.04 | 0.74 | 0.69 | 91 | 1004.8 |
| 20260903190325 | 58 | 163 | 1.7 | 7.8 | 0.04 | 0.74 | 0.68 | 91 | 1004.8 |
| 20260903185825 | 58 | 198 | 3.5 | 7.8 | 0.08 | 0.84 | 0.68 | 90 | 1004.8 |
| 20260903185325 | 58 | 205 | 3.5 | 7.0 | 0.08 | 0.84 | 0.68 | 90 | 1004.9 |
| 20260903184825 | 58 | 165 | 1.7 | 7.0 | 0.08 | 0.84 | 0.68 | 90 | 1004.9 |
| 20260903184326 | 58 | 245 | 3.5 | 7.0 | 0.08 | 0.84 | 0.68 | 90 | 1004.8 |
| 20260903183325 | 58 | 162 | 2.6 | 7.8 | 0.08 | 0.84 | 0.68 | 91 | 1004.9 |
| 20260903182825 | 58 | 196 | 0.9 | 7.8 | 0.07 | 0.84 | 0.67 | 90 | 1004.9 |
| 20260903182325 | 58 | 191 | 2.6 | 7.8 | 0.07 | 0.84 | 0.66 | 90 | 1004.9 |
| 20260903181825 | 58 | 149 | 2.6 | 4.3 | 0.07 | 0.84 | 0.66 | 90 | 1004.9 |
| 20260903181326 | 58 | 154 | 0.9 | 7.8 | 0.07 | 0.84 | 0.65 | 90 | 1004.9 |
| 20260903180825 | 58 | 175 | 2.6 | 7.8 | 0.06 | 0.84 | 0.65 | 90 | 1004.9 |
| 20260903180325 | 58 | 70 | 3.5 | 7.8 | 0.06 | 0.84 | 0.65 | 90 | 1004.9 |
| 20260903175825 | 58 | 198 | 2.6 | 8.7 | 0.04 | 0.84 | 0.63 | 90 | 1004.9 |
| 20260903175325 | 58 | 84 | 1.7 | 8.7 | 0.04 | 0.84 | 0.61 | 90 | 1004.9 |
| 20260903174825 | 58 | 149 | 4.3 | 8.7 | 0.07 | 0.84 | 0.60 | 90 | 1004.9 |
| 20260903174326 | 58 | 163 | 0.9 | 12.2 | 0.07 | 0.84 | 0.60 | 90 | 1004.9 |
| 20260903173826 | 58 | 47 | 3.5 | 12.2 | 0.11 | 0.84 | 0.60 | 90 | 1004.8 |
| 20260903173325 | 58 | 142 | 5.2 | 12.2 | 0.11 | 0.84 | 0.60 | 90 | 1004.9 |
| 20260903172825 | 58 | 182 | 4.3 | 11.3 | 0.10 | 0.84 | 0.59 | 90 | 1004.8 |
| 20260903172326 | 58 | 198 | 3.5 | 13.9 | 0.10 | 0.84 | 0.59 | 90 | 1004.8 |
| 20260903171825 | 58 | 165 | 7.0 | 13.9 | 0.09 | 0.84 | 0.58 | 90 | 1004.6 |
| 20260903171326 | 59 | 182 | 5.2 | 13.9 | 0.09 | 0.84 | 0.58 | 90 | 1004.6 |
| 20260903170825 | 58 | 193 | 6.1 | 13.0 | 0.09 | 0.84 | 0.58 | 91 | 1004.6 |
| 20260903170325 | 58 | 217 | 5.2 | 19.1 | 0.09 | 0.84 | 0.58 | 91 | 1004.7 |
| 20260903165825 | 58 | 191 | 7.8 | 19.1 | 0.07 | 0.83 | 0.58 | 90 | 1004.7 |
| 20260903165325 | 58 | 207 | 7.8 | 19.1 | 0.07 | 0.83 | 0.57 | 90 | 1004.7 |
| 20260903164825 | 58 | 197 | 7.8 | 14.8 | 0.04 | 0.83 | 0.56 | 90 | 1004.7 |
| 20260903164326 | 59 | 190 | 7.0 | 18.2 | 0.04 | 0.83 | 0.54 | 90 | 1004.7 |
| 20260903163825 | 59 | 205 | 7.0 | 18.2 | 0.00 | 0.83 | 0.52 | 90 | 1004.7 |
| 20260903163325 | 59 | 182 | 10.4 | 18.2 | 0.00 | 0.83 | 0.49 | 90 | 1004.6 |
| 20260903162826 | 59 | 133 | 1.7 | 7.0 | 0.07 | 0.83 | 0.49 | 90 | 1004.4 |
| 20260903162329 | 59 | 140 | 3.5 | 7.0 | 0.07 | 0.83 | 0.49 | 90 | 1004.4 |
| 20260903161825 | 59 | 222 | 4.3 | 14.8 | 0.07 | 0.83 | 0.49 | 90 | 1004.4 |
| 20260903161326 | 59 | 204 | 2.6 | 14.8 | 0.07 | 0.83 | 0.49 | 90 | 1004.6 |
| 20260903160827 | 59 | 190 | 3.5 | 14.8 | 0.07 | 0.83 | 0.49 | 90 | 1004.6 |
| 20260903160325 | 59 | 166 | 4.3 | 11.3 | 0.07 | 0.83 | 0.49 | 90 | 1004.6 |
| 20260903155826 | 59 | 96 | 1.7 | 9.6 | 0.07 | 0.82 | 0.49 | 90 | 1004.5 |
| 20260903155325 | 59 | 156 | 3.5 | 8.7 | 0.07 | 0.82 | 0.49 | 90 | 1004.4 |
| 20260903154825 | 58 | 166 | 2.6 | 11.3 | 0.07 | 0.82 | 0.49 | 90 | 1004.4 |
| 20260903154326 | 58 | 155 | 3.5 | 11.3 | 0.07 | 0.82 | 0.49 | 90 | 1004.4 |
| 20260903153825 | 58 | 172 | 4.3 | 11.3 | 0.10 | 0.82 | 0.49 | 90 | 1004.4 |
| 20260903153325 | 58 | 135 | 7.0 | 9.6 | 0.10 | 0.82 | 0.49 | 90 | 1004.4 |
| 20260903152826 | 58 | 165 | 5.2 | 7.8 | 0.05 | 0.82 | 0.47 | 90 | 1004.5 |
| 20260903152325 | 58 | 110 | 2.6 | 6.1 | 0.05 | 0.82 | 0.42 | 90 | 1004.4 |
| 20260903151825 | 58 | 212 | 3.5 | 8.7 | 0.07 | 0.82 | 0.42 | 90 | 1004.4 |
| 20260903151326 | 58 | 156 | 4.3 | 8.7 | 0.07 | 0.82 | 0.42 | 90 | 1004.5 |
| 20260903150825 | 58 | 84 | 3.5 | 8.7 | 0.09 | 0.82 | 0.42 | 90 | 1004.4 |
| 20260903150325 | 57 | 84 | 3.5 | 7.8 | 0.09 | 0.82 | 0.42 | 90 | 1004.3 |
| 20260903145826 | 57 | 85 | 2.6 | 7.0 | 0.11 | 0.80 | 0.42 | 90 | 1004.3 |
| 20260903145325 | 57 | 77 | 3.5 | 7.0 | 0.11 | 0.80 | 0.42 | 90 | 1004.2 |
| 20260903144825 | 57 | 93 | 2.6 | 5.2 | 0.14 | 0.80 | 0.42 | 90 | 1004.2 |
| 20260903144326 | 56 | 142 | 0.9 | 11.3 | 0.14 | 0.80 | 0.42 | 90 | 1004.1 |
| 20260903143825 | 56 | 219 | 2.6 | 11.3 | 0.11 | 0.80 | 0.42 | 90 | 1004.2 |
| 20260903143325 | 56 | 232 | 3.5 | 11.3 | 0.11 | 0.80 | 0.42 | 90 | 1004.5 |
| 20260903142825 | 56 | 204 | 2.6 | 12.2 | 0.10 | 0.80 | 0.38 | 90 | 1004.5 |
| 20260903142325 | 56 | 208 | 4.3 | 12.2 | 0.10 | 0.80 | 0.37 | 90 | 1004.3 |
| 20260903141825 | 56 | 228 | 2.6 | 12.2 | 0.10 | 0.80 | 0.37 | 90 | 1004.3 |
| 20260903141326 | 56 | 214 | 5.2 | 7.8 | 0.10 | 0.80 | 0.35 | 90 | 1004.4 |
| 20260903140825 | 56 | 169 | 3.5 | 13.9 | 0.09 | 0.80 | 0.34 | 90 | 1004.5 |
| 20260903135826 | 56 | 173 | 1.7 | 13.9 | 0.07 | 0.72 | 0.33 | 90 | 1004.4 |
| 20260903135325 | 56 | 212 | 4.3 | 10.4 | 0.07 | 0.72 | 0.32 | 90 | 1004.4 |
| 20260903134825 | 56 | 204 | 4.3 | 10.4 | 0.07 | 0.72 | 0.31 | 89 | 1004.4 |
| 20260903134326 | 57 | 172 | 3.5 | 10.4 | 0.07 | 0.72 | 0.29 | 89 | 1004.3 |
| 20260903133825 | 57 | 124 | 3.5 | 8.7 | 0.07 | 0.72 | 0.28 | 89 | 1004.2 |
| 20260903133325 | 57 | 70 | 2.6 | 8.7 | 0.07 | 0.72 | 0.28 | 89 | 1004.2 |
| 20260903132826 | 57 | 140 | 2.6 | 8.7 | 0.06 | 0.72 | 0.27 | 89 | 1004.1 |
| 20260903132325 | 57 | 159 | 3.5 | 14.8 | 0.06 | 0.72 | 0.27 | 89 | 1004.2 |
| 20260903131826 | 57 | 197 | 3.5 | 14.8 | 0.04 | 0.72 | 0.27 | 89 | 1004.1 |
| 20260903131326 | 57 | 172 | 5.2 | 14.8 | 0.04 | 0.72 | 0.26 | 89 | 1004.2 |
| 20260903130825 | 57 | 177 | 6.1 | 13.0 | 0.03 | 0.72 | 0.24 | 89 | 1004.3 |
| 20260903125826 | 57 | 191 | 7.8 | 18.2 | 0.03 | 0.69 | 0.24 | 89 | 1004.4 |
| 20260903125325 | 58 | 201 | 6.1 | 18.2 | 0.03 | 0.69 | 0.24 | 89 | 1004.3 |
| 20260903124825 | 58 | 190 | 3.5 | 13.0 | 0.00 | 0.69 | 0.23 | 89 | 1004.2 |
| 20260903124327 | 58 | 180 | 4.3 | 11.3 | 0.00 | 0.69 | 0.23 | 89 | 1004.4 |
| 20260903123825 | 58 | 179 | 5.2 | 11.3 | 0.00 | 0.69 | 0.21 | 89 | 1004.2 |
| 20260903123325 | 58 | 75 | 4.3 | 9.6 | 0.00 | 0.69 | 0.21 | 89 | 1004.2 |
| 20260903122326 | 58 | 168 | 4.3 | 11.3 | 0.00 | 0.69 | 0.21 | 89 | 1004.2 |
| 20260903121825 | 58 | 140 | 2.6 | 11.3 | 0.00 | 0.69 | 0.21 | 89 | 1004.3 |
| 20260903121326 | 58 | 196 | 2.6 | 11.3 | 0.00 | 0.69 | 0.21 | 89 | 1004.4 |
| 20260903120825 | 58 | 201 | 5.2 | 10.4 | 0.00 | 0.69 | 0.21 | 89 | 1004.4 |
| 20260903120325 | 58 | 161 | 5.2 | 9.6 | 0.00 | 0.69 | 0.21 | 89 | 1004.3 |
| 20260903115826 | 58 | 135 | 2.6 | 9.6 | 0.00 | 0.69 | 0.21 | 89 | 1004.4 |
| 20260903115326 | 58 | 124 | 3.5 | 12.2 | 0.00 | 0.69 | 0.21 | 89 | 1004.5 |
| 20260903114825 | 58 | 161 | 4.3 | 12.2 | 0.01 | 0.69 | 0.21 | 89 | 1004.5 |
| 20260903114326 | 58 | 130 | 6.1 | 12.2 | 0.01 | 0.69 | 0.21 | 89 | 1004.4 |
| 20260903113325 | 58 | 190 | 4.3 | 15.6 | 0.05 | 0.69 | 0.21 | 89 | 1004.7 |
| 20260903112826 | 58 | 180 | 4.3 | 15.6 | 0.07 | 0.69 | 0.21 | 89 | 1004.6 |
| 20260903112325 | 58 | 123 | 7.0 | 19.1 | 0.07 | 0.69 | 0.21 | 89 | 1004.7 |
| 20260903111825 | 58 | 175 | 4.3 | 19.1 | 0.09 | 0.69 | 0.21 | 89 | 1004.7 |
| 20260903111326 | 58 | 190 | 7.0 | 19.1 | 0.09 | 0.69 | 0.21 | 89 | 1004.8 |
| 20260903110825 | 58 | 184 | 7.8 | 15.6 | 0.13 | 0.69 | 0.21 | 89 | 1004.7 |
| 20260903110325 | 59 | 156 | 7.0 | 15.6 | 0.13 | 0.69 | 0.21 | 89 | 1004.7 |
| 20260903105826 | 58 | 184 | 5.2 | 15.6 | 0.20 | 0.56 | 0.21 | 89 | 1004.6 |
| 20260903105325 | 59 | 200 | 8.7 | 20.9 | 0.20 | 0.56 | 0.21 | 89 | 1004.7 |
| 20260903104825 | 59 | 148 | 7.8 | 20.9 | 0.19 | 0.56 | 0.21 | 89 | 1004.6 |
| 20260903104326 | 59 | 201 | 8.7 | 20.9 | 0.19 | 0.56 | 0.20 | 89 | 1004.7 |
| 20260903103829 | 59 | 205 | 6.1 | 19.1 | 0.16 | 0.56 | 0.19 | 88 | 1004.8 |
| 20260903103325 | 59 | 196 | 6.1 | 19.1 | 0.16 | 0.56 | 0.16 | 88 | 1004.7 |
| 20260903102826 | 59 | 154 | 5.2 | 19.1 | 0.14 | 0.56 | 0.16 | 88 | 1004.7 |
| 20260903102454 | 59 | 219 | 5.2 | 14.8 | 0.12 | 0.56 | 0.13 | 88 | 1004.8 |
| 20260903102325 | 59 | 246 | 9.6 | 17.4 | 0.14 | 0.56 | 0.15 | 88 | 1004.6 |
| 20260903101825 | 59 | 183 | 2.6 | 10.4 | 0.12 | 0.56 | 0.14 | 88 | 1004.7 |
| 20260903101326 | 59 | 219 | 5.2 | 14.8 | 0.12 | 0.56 | 0.13 | 88 | 1004.8 |
| 20260903100825 | 59 | 226 | 7.0 | 14.8 | 0.08 | 0.56 | 0.11 | 87 | 1004.8 |
| 20260903100325 | 59 | 135 | 3.5 | 14.8 | 0.08 | 0.56 | 0.09 | 87 | 1004.7 |
| 20260903095826 | 59 | 163 | 4.3 | 9.6 | 0.01 | 0.48 | 0.06 | 87 | 1004.6 |
| 20260903095325 | 59 | 191 | 5.2 | 10.4 | 0.01 | 0.48 | 0.01 | 87 | 1004.6 |
| 20260903094825 | 59 | 172 | 3.5 | 10.4 | 0.01 | 0.48 | 0.01 | 86 | 1004.6 |
| 20260903094326 | 59 | 196 | 6.1 | 10.4 | 0.01 | 0.48 | 0.01 | 86 | 1004.7 |
| 20260903093825 | 59 | 154 | 6.1 | 9.6 | 0.00 | 0.48 | 0.01 | 86 | 1004.8 |
| 20260903093325 | 59 | 187 | 4.3 | 9.6 | 0.00 | 0.48 | 0.00 | 86 | 1004.8 |
| 20260903092826 | 60 | 156 | 4.3 | 18.2 | 0.00 | 0.48 | 0.00 | 86 | 1004.8 |
| 20260903092325 | 60 | 217 | 2.6 | 18.2 | 0.00 | 0.48 | 0.00 | 86 | 1004.8 |
| 20260903091825 | 59 | 173 | 4.3 | 18.2 | 0.00 | 0.48 | 0.00 | 86 | 1004.8 |
| 20260903091326 | 60 | 179 | 5.2 | 15.6 | 0.00 | 0.48 | 0.00 | 86 | 1004.8 |
| 20260903090825 | 59 | 203 | 8.7 | 12.2 | 0.00 | 0.48 | 0.00 | 86 | 1004.8 |
| 20260903090326 | 59 | 147 | 6.1 | 12.2 | 0.00 | 0.48 | 0.00 | 86 | 1004.8 |
| 20260903085825 | 59 | 103 | 3.5 | 11.3 | 0.00 | 0.48 | 0.00 | 86 | 1004.8 |
| 20260903085325 | 59 | 200 | 6.1 | 11.3 | 0.00 | 0.48 | 0.00 | 86 | 1004.7 |
| 20260903084825 | 59 | 142 | 3.5 | 12.2 | 0.00 | 0.48 | 0.00 | 86 | 1004.7 |
| 20260903084326 | 59 | 196 | 2.6 | 12.2 | 0.00 | 0.48 | 0.00 | 86 | 1004.7 |
| 20260903083825 | 59 | 112 | 6.1 | 12.2 | 0.00 | 0.48 | 0.00 | 86 | 1004.6 |
| 20260903083325 | 59 | 179 | 6.1 | 8.7 | 0.00 | 0.48 | 0.00 | 87 | 1004.6 |
| 20260903082826 | 59 | 120 | 2.6 | 8.7 | 0.00 | 0.48 | 0.00 | 87 | 1004.6 |
| 20260903082325 | 59 | 172 | 4.3 | 12.2 | 0.00 | 0.48 | 0.00 | 87 | 1004.6 |
| 20260903081825 | 59 | 238 | 4.3 | 12.2 | 0.00 | 0.48 | 0.00 | 87 | 1004.7 |
| 20260903081326 | 59 | 184 | 3.5 | 12.2 | 0.00 | 0.48 | 0.00 | 87 | 1004.9 |
| 20260903080825 | 59 | 193 | 4.3 | 10.4 | 0.00 | 0.48 | 0.00 | 87 | 1004.9 |
| 20260903075826 | 59 | 156 | 3.5 | 10.4 | 0.00 | 0.48 | 0.00 | 87 | 1005.0 |
| 20260903075357 | 59 | 184 | 2.6 | 13.0 | 0.00 | 0.48 | 0.00 | 87 | 1005.0 |
| 20260903075326 | 59 | 184 | 2.6 | 13.0 | 0.00 | 0.48 | 0.00 | 87 | 1005.0 |
| 20260903074825 | 60 | 149 | 3.5 | 13.0 | 0.00 | 0.48 | 0.00 | 87 | 1005.0 |
| 20260903074326 | 59 | 166 | 3.5 | 13.0 | 0.00 | 0.48 | 0.00 | 87 | 1004.9 |
| 20260903073825 | 59 | 170 | 4.3 | 7.8 | 0.00 | 0.48 | 0.00 | 87 | 1004.9 |
| 20260903073325 | 59 | 103 | 4.3 | 7.8 | 0.00 | 0.48 | 0.00 | 87 | 1005.0 |
| 20260903073138 | 59 | 238 | 2.6 | 11.3 | 0.00 | 0.48 | 0.00 | 87 | 1005.0 |
| 20260903072826 | 59 | 238 | 2.6 | 11.3 | 0.00 | 0.48 | 0.00 | 87 | 1005.0 |
| 20260903072325 | 59 | 183 | 4.3 | 11.3 | 0.00 | 0.48 | 0.00 | 87 | 1005.0 |
| 20260903071825 | 59 | 91 | 3.5 | 11.3 | 0.00 | 0.48 | 0.00 | 87 | 1005.0 |
| 20260903071326 | 60 | 91 | 4.3 | 9.6 | 0.00 | 0.48 | 0.00 | 87 | 1004.9 |
| 20260903070825 | 59 | 183 | 0.9 | 9.6 | 0.00 | 0.48 | 0.00 | 87 | 1004.9 |
| 20260903070325 | 59 | 148 | 4.3 | 9.6 | 0.00 | 0.48 | 0.00 | 87 | 1004.9 |
| 20260903065826 | 60 | 173 | 4.3 | 14.8 | 0.00 | 0.48 | 0.00 | 87 | 1004.9 |
| 20260903065325 | 60 | 151 | 3.5 | 14.8 | 0.00 | 0.48 | 0.48 | 87 | 1004.8 |
| 20260903064825 | 59 | 155 | 2.6 | 14.8 | 0.00 | 0.48 | 0.48 | 87 | 1004.9 |
| 20260903063825 | 59 | 138 | 6.1 | 13.9 | 0.00 | 0.48 | 0.48 | 87 | 1004.8 |
| 20260903063325 | 59 | 168 | 3.5 | 13.9 | 0.00 | 0.48 | 0.48 | 87 | 1004.9 |
| 20260903062826 | 59 | 140 | 6.1 | 13.0 | 0.00 | 0.48 | 0.48 | 87 | 1004.9 |
| 20260903062325 | 59 | 103 | 6.1 | 10.4 | 0.00 | 0.48 | 0.48 | 87 | 1004.9 |
| 20260903061825 | 59 | 197 | 4.3 | 13.9 | 0.00 | 0.48 | 0.48 | 87 | 1005.0 |
| 20260903061326 | 59 | 130 | 6.1 | 13.9 | 0.00 | 0.48 | 0.48 | 87 | 1005.0 |
| 20260903060825 | 59 | 173 | 4.3 | 13.9 | 0.00 | 0.48 | 0.48 | 87 | 1005.1 |
| 20260903060325 | 59 | 183 | 5.2 | 10.4 | 0.00 | 0.48 | 0.48 | 87 | 1005.1 |
| 20260903055826 | 59 | 165 | 5.2 | 10.4 | 0.00 | 0.48 | 0.48 | 87 | 1005.1 |
| 20260903055325 | 59 | 141 | 1.7 | 8.7 | 0.00 | 0.48 | 0.48 | 87 | 1005.1 |
| 20260903054825 | 59 | 168 | 5.2 | 12.2 | 0.00 | 0.48 | 0.48 | 87 | 1005.1 |
| 20260903054326 | 59 | 194 | 6.1 | 12.2 | 0.00 | 0.48 | 0.48 | 87 | 1005.2 |
| 20260903053825 | 59 | 154 | 4.3 | 12.2 | 0.00 | 0.48 | 0.48 | 87 | 1005.3 |
| 20260903052826 | 59 | 126 | 2.6 | 14.8 | 0.00 | 0.48 | 0.48 | 87 | 1005.2 |
| 20260903052325 | 59 | 175 | 6.1 | 14.8 | 0.00 | 0.48 | 0.48 | 87 | 1005.2 |
| 20260903051825 | 59 | 176 | 1.7 | 14.8 | 0.00 | 0.48 | 0.48 | 87 | 1005.2 |
| 20260903051326 | 59 | 235 | 6.1 | 9.6 | 0.00 | 0.48 | 0.48 | 87 | 1005.1 |
| 20260903050825 | 59 | 204 | 4.3 | 10.4 | 0.00 | 0.48 | 0.48 | 87 | 1005.1 |
| 20260903050325 | 59 | 172 | 5.2 | 10.4 | 0.00 | 0.48 | 0.48 | 87 | 1005.1 |
| 20260903045826 | 59 | 168 | 3.5 | 10.4 | 0.00 | 0.48 | 0.48 | 87 | 1005.0 |
| 20260903045325 | 59 | 159 | 4.3 | 11.3 | 0.00 | 0.48 | 0.48 | 87 | 1005.0 |
| 20260903044825 | 59 | 127 | 5.2 | 11.3 | 0.00 | 0.48 | 0.48 | 87 | 1005.0 |
| 20260903044326 | 59 | 172 | 5.2 | 11.3 | 0.00 | 0.48 | 0.48 | 87 | 1005.1 |
| 20260903043825 | 59 | 148 | 3.5 | 9.6 | 0.00 | 0.48 | 0.48 | 87 | 1005.1 |
| 20260903042826 | 59 | 135 | 2.6 | 13.9 | 0.00 | 0.48 | 0.48 | 87 | 1005.0 |
| 20260903042325 | 59 | 197 | 4.3 | 13.9 | 0.00 | 0.48 | 0.48 | 87 | 1005.0 |
| 20260903041825 | 59 | 187 | 2.6 | 13.9 | 0.00 | 0.48 | 0.48 | 87 | 1005.0 |
| 20260903041327 | 59 | 190 | 7.8 | 9.6 | 0.00 | 0.48 | 0.48 | 87 | 1005.0 |
| 20260903040825 | 59 | 177 | 2.6 | 9.6 | 0.00 | 0.48 | 0.48 | 87 | 1005.0 |
| 20260903040325 | 59 | 158 | 3.5 | 8.7 | 0.00 | 0.48 | 0.48 | 87 | 1005.0 |
| 20260903035826 | 59 | 190 | 3.5 | 14.8 | 0.00 | 0.48 | 0.48 | 87 | 1004.9 |
| 20260903035325 | 59 | 140 | 4.3 | 14.8 | 0.00 | 0.48 | 0.48 | 87 | 1004.9 |
| 20260903034825 | 59 | 177 | 3.5 | 14.8 | 0.00 | 0.48 | 0.48 | 87 | 1004.7 |
| 20260903034326 | 59 | 183 | 7.8 | 12.2 | 0.00 | 0.48 | 0.48 | 87 | 1004.7 |
| 20260903033825 | 59 | 154 | 4.3 | 11.3 | 0.00 | 0.48 | 0.48 | 86 | 1004.7 |
| 20260903033325 | 59 | 105 | 2.6 | 10.4 | 0.00 | 0.48 | 0.48 | 86 | 1004.7 |
| 20260903032826 | 59 | 211 | 7.0 | 9.6 | 0.00 | 0.48 | 0.48 | 86 | 1004.6 |
| 20260903032325 | 60 | 193 | 2.6 | 13.0 | 0.00 | 0.48 | 0.48 | 87 | 1004.6 |
| 20260903031825 | 60 | 194 | 5.2 | 13.0 | 0.00 | 0.48 | 0.48 | 86 | 1004.6 |
| 20260903031326 | 60 | 190 | 4.3 | 13.0 | 0.00 | 0.48 | 0.48 | 86 | 1004.6 |
| 20260903030825 | 60 | 173 | 7.0 | 11.3 | 0.00 | 0.48 | 0.48 | 86 | 1004.6 |
| 20260903030325 | 60 | 179 | 3.5 | 11.3 | 0.00 | 0.48 | 0.48 | 86 | 1004.5 |
| 20260903025826 | 60 | 201 | 4.3 | 11.3 | 0.00 | 0.48 | 0.48 | 86 | 1004.5 |
| 20260903025325 | 60 | 186 | 3.5 | 12.2 | 0.00 | 0.48 | 0.48 | 86 | 1004.6 |
| 20260903024826 | 60 | 207 | 5.2 | 12.2 | 0.00 | 0.48 | 0.48 | 86 | 1004.5 |
| 20260903024326 | 60 | 196 | 5.2 | 12.2 | 0.00 | 0.48 | 0.48 | 86 | 1004.5 |
| 20260903023825 | 60 | 154 | 5.2 | 9.6 | 0.00 | 0.48 | 0.48 | 86 | 1004.4 |
| 20260903023325 | 60 | 204 | 6.1 | 13.0 | 0.00 | 0.48 | 0.48 | 86 | 1004.5 |
| 20260903022826 | 60 | 177 | 3.5 | 13.0 | 0.00 | 0.48 | 0.48 | 86 | 1004.5 |
| 20260903022325 | 60 | 205 | 6.1 | 13.0 | 0.00 | 0.48 | 0.48 | 85 | 1004.6 |
| 20260903021825 | 60 | 205 | 5.2 | 14.8 | 0.00 | 0.48 | 0.48 | 85 | 1004.5 |
| 20260903021326 | 60 | 184 | 2.6 | 14.8 | 0.00 | 0.48 | 0.48 | 85 | 1004.5 |
| 20260903020825 | 60 | 173 | 6.1 | 14.8 | 0.00 | 0.48 | 0.48 | 85 | 1004.5 |
| 20260903020325 | 60 | 179 | 6.1 | 14.8 | 0.00 | 0.48 | 0.48 | 85 | 1004.5 |
| 20260903015826 | 61 | 182 | 4.3 | 14.8 | 0.00 | 0.48 | 0.48 | 84 | 1004.5 |
| 20260903015325 | 61 | 196 | 3.5 | 14.8 | 0.00 | 0.48 | 0.48 | 84 | 1004.4 |
| 20260903014825 | 61 | 194 | 7.8 | 12.2 | 0.00 | 0.48 | 0.48 | 84 | 1004.3 |
| 20260903014326 | 61 | 205 | 5.2 | 17.4 | 0.00 | 0.48 | 0.48 | 84 | 1004.4 |
| 20260903013825 | 61 | 200 | 8.7 | 17.4 | 0.00 | 0.48 | 0.48 | 84 | 1004.3 |
| 20260903013326 | 61 | 198 | 7.8 | 17.4 | 0.00 | 0.48 | 0.48 | 84 | 1004.4 |
| 20260903012826 | 61 | 207 | 7.8 | 16.5 | 0.00 | 0.48 | 0.48 | 84 | 1004.4 |
| 20260903012325 | 61 | 184 | 9.6 | 14.8 | 0.00 | 0.48 | 0.48 | 83 | 1004.4 |
| 20260903011828 | 61 | 179 | 8.7 | 15.6 | 0.00 | 0.48 | 0.00 | 84 | 1004.3 |
| 20260903011825 | 61 | 179 | 8.7 | 15.6 | 0.00 | 0.48 | 0.48 | 84 | 1004.3 |
| 20260903011326 | 61 | 212 | 6.1 | 15.6 | 0.00 | 0.48 | 0.48 | 84 | 1004.4 |
| 20260903010826 | 61 | 203 | 8.7 | 15.6 | 0.00 | 0.48 | 0.48 | 84 | 1004.3 |
| 20260903010325 | 62 | 256 | 10.4 | 13.0 | 0.00 | 0.48 | 0.48 | 84 | 1004.3 |
| 20260903005826 | 62 | 175 | 7.0 | 17.4 | 0.00 | 0.48 | 0.48 | 84 | 1004.2 |
| 20260903005325 | 62 | 179 | 4.3 | 17.4 | 0.00 | 0.48 | 0.48 | 84 | 1004.3 |
| 20260903004826 | 61 | 210 | 6.1 | 17.4 | 0.00 | 0.48 | 0.48 | 84 | 1004.2 |
| 20260903004326 | 61 | 149 | 7.8 | 18.2 | 0.00 | 0.48 | 0.48 | 84 | 1004.1 |
| 20260903003826 | 61 | 198 | 7.0 | 18.2 | 0.00 | 0.48 | 0.48 | 84 | 1004.2 |
| 20260903003325 | 61 | 180 | 9.6 | 18.2 | 0.00 | 0.48 | 0.48 | 84 | 1004.2 |
| 20260903002825 | 61 | 218 | 6.1 | 13.9 | 0.00 | 0.48 | 0.48 | 85 | 1004.1 |
| 20260903002325 | 61 | 198 | 6.1 | 17.4 | 0.00 | 0.48 | 0.48 | 84 | 1004.1 |
| 20260903001826 | 61 | 201 | 9.6 | 17.4 | 0.00 | 0.48 | 0.48 | 84 | 1004.0 |
| 20260903001326 | 61 | 175 | 9.6 | 17.4 | 0.00 | 0.48 | 0.48 | 84 | 1004.0 |
| 20260903000826 | 62 | 196 | 7.8 | 14.8 | 0.00 | 0.48 | 0.48 | 85 | 1004.0 |
| 20260903000325 | 61 | 176 | 7.0 | 12.2 | 0.00 | 0.48 | 0.48 | 86 | 1003.8 |
| 20260902235826 | 62 | 196 | 6.1 | 12.2 | 0.00 | 0.48 | 0.48 | 86 | 1003.8 |
| 20260902235325 | 62 | 189 | 3.5 | 12.2 | 0.00 | 0.48 | 0.48 | 86 | 1003.7 |
| 20260902234826 | 62 | 190 | 8.7 | 11.3 | 0.00 | 0.48 | 0.48 | 85 | 1003.6 |
| 20260902234326 | 63 | 200 | 5.2 | 11.3 | 0.00 | 0.48 | 0.48 | 86 | 1003.6 |
| 20260902233826 | 63 | 190 | 4.3 | 11.3 | 0.00 | 0.48 | 0.48 | 87 | 1003.5 |
| 20260902233325 | 63 | 196 | 6.1 | 11.3 | 0.00 | 0.48 | 0.48 | 87 | 1003.4 |
| 20260902232826 | 63 | 200 | 6.1 | 11.3 | 0.00 | 0.48 | 0.48 | 87 | 1003.4 |
| 20260902232325 | 62 | 186 | 7.8 | 13.9 | 0.00 | 0.48 | 0.48 | 87 | 1003.4 |
| 20260902231826 | 63 | 186 | 3.5 | 13.9 | 0.00 | 0.48 | 0.48 | 88 | 1003.3 |
| 20260902231326 | 63 | 180 | 7.0 | 13.9 | 0.00 | 0.48 | 0.48 | 87 | 1003.3 |
| 20260902230826 | 63 | 194 | 9.6 | 13.0 | 0.00 | 0.48 | 0.48 | 88 | 1003.2 |
| 20260902225826 | 63 | 222 | 7.0 | 9.6 | 0.00 | 0.48 | 0.48 | 89 | 1003.1 |
| 20260902225325 | 63 | 196 | 3.5 | 12.2 | 0.00 | 0.48 | 0.48 | 89 | 1003.1 |
| 20260902224826 | 63 | 229 | 7.8 | 12.2 | 0.00 | 0.48 | 0.48 | 89 | 1003.1 |
| 20260902224326 | 63 | 182 | 5.2 | 12.2 | 0.00 | 0.48 | 0.48 | 89 | 1003.0 |
| 20260902223325 | 63 | 186 | 6.1 | 12.2 | 0.01 | 0.48 | 0.48 | 89 | 1002.8 |
| 20260902222826 | 63 | 256 | 7.0 | 12.2 | 0.01 | 0.48 | 0.48 | 89 | 1002.8 |
| 20260902222325 | 62 | 196 | 5.2 | 9.6 | 0.01 | 0.48 | 0.48 | 90 | 1002.8 |
| 20260902221826 | 62 | 187 | 2.6 | 11.3 | 0.01 | 0.48 | 0.48 | 90 | 1002.8 |
| 20260902221326 | 61 | 196 | 4.3 | 11.3 | 0.01 | 0.48 | 0.48 | 90 | 1002.7 |
| 20260902220325 | 61 | 205 | 4.3 | 11.3 | 0.01 | 0.48 | 0.48 | 90 | 1002.6 |
| 20260902215826 | 60 | 191 | 3.5 | 11.3 | 0.01 | 0.48 | 0.48 | 90 | 1002.6 |
| 20260902215325 | 60 | 201 | 6.1 | 11.3 | 0.01 | 0.48 | 0.48 | 90 | 1002.6 |
| 20260902214825 | 60 | 190 | 1.7 | 11.3 | 0.01 | 0.48 | 0.48 | 90 | 1002.7 |
| 20260902214326 | 60 | 184 | 4.3 | 11.3 | 0.01 | 0.48 | 0.48 | 90 | 1002.7 |
| 20260902213826 | 60 | 201 | 5.2 | 11.3 | 0.00 | 0.47 | 0.48 | 90 | 1002.6 |
| 20260902213325 | 60 | 211 | 4.3 | 11.3 | 0.00 | 0.47 | 0.47 | 90 | 1002.5 |
| 20260902212825 | 60 | 191 | 2.6 | 13.0 | 0.00 | 0.47 | 0.47 | 90 | 1002.4 |
| 20260902212325 | 60 | 203 | 4.3 | 13.0 | 0.00 | 0.47 | 0.47 | 90 | 1002.3 |
| 20260902211825 | 60 | 212 | 3.5 | 13.0 | 0.00 | 0.47 | 0.47 | 90 | 1002.2 |
| 20260902211326 | 60 | 193 | 3.5 | 12.2 | 0.00 | 0.47 | 0.47 | 90 | 1002.2 |
| 20260902210825 | 60 | 242 | 7.0 | 14.8 | 0.01 | 0.47 | 0.47 | 90 | 1002.2 |
| 20260902210326 | 59 | 186 | 1.7 | 14.8 | 0.01 | 0.47 | 0.47 | 90 | 1002.2 |